[[{"header":{"parameterUnit":"m.s-1","parameterCategory":1,"la1":30.2991,"la2":30.254,"lo1":-89.0895,"lo2":-89.0444,"dy":0.0017,"dx":0.0017,"nx":28,"ny":28,"refTime":"2024-03-08T03:00:00:Z","depth":0,"parameterNumber":2,"parameterNumberName":"U-component_of_WINDS"},"data":[0,0,0,0,0,0,0,0,0,0,0,0,0,0,0,0,0,0,0,0,0,0,0,0,0,0,0,0,0,0,0,0,0,0,0,0,0,0,0,0,0,0,0,0,0,0,0,0,0,0,0,0,0,0,0,0,0,0,1.6725,1.6726,0,1.6788,1.6788,1.6789,1.6773,1.6771,1.677,1.6769,1.6834,1.6837,1.684,0,0,0,0,0,0,0,0,0,0,0,0,0,1.6594,1.6597,1.6725,1.6726,1.6727,1.6788,1.6788,1.6789,1.6773,1.6771,1.677,1.6768,1.6833,1.6837,1.684,0,0,0,0,0,0,0,0,0,0,0,0,0,1.6653,1.6597,1.6725,1.6726,1.6727,1.6787,1.6789,1.679,1.6773,1.6771,1.6769,1.6768,1.6832,1.6836,1.6841,1.6905,0,0,1.6854,1.6856,0,0,0,0,0,0,0,0,1.665,1.6658,1.6725,1.6726,1.6727,1.677,1.6766,1.6828,1.6774,1.6755,1.6769,1.6767,1.6815,1.682,1.6836,1.6908,1.6911,1.6854,1.6857,1.6859,1.686,0,0,0,0,0,0,0,1.6646,1.6655,1.675,1.6726,1.6727,1.6724,1.673,1.6778,1.6795,1.6757,1.6756,1.6763,1.6815,1.6832,1.6838,1.6912,1.6854,1.6858,1.6861,1.6862,1.7042,1.7044,0,0,0,0,0,0,1.6641,1.6652,1.6748,1.6752,1.6683,1.6728,1.6735,1.6758,1.6794,1.6798,1.6765,1.6762,1.6825,1.6832,1.684,1.6919,1.6859,1.6863,1.6865,1.704,1.7043,1.7045,0,0,0,0,0,0,1.6638,1.665,1.6745,1.6702,1.6714,1.6732,1.6759,1.6761,1.6778,1.68,1.6803,1.6779,1.6824,1.6834,1.6889,1.6921,1.6865,1.6869,1.7038,1.7041,1.7044,1.7078,0,0,0,0,0,0,1.6634,1.6649,1.6673,1.6702,1.6716,1.6793,1.676,1.6763,1.6785,1.6782,1.6815,1.6818,1.6823,1.6883,1.6894,1.6926,1.6872,1.7035,1.7039,1.7043,1.7074,1.7082,1.7088,0,0,0,0,0,1.663,1.6679,1.6674,1.6686,1.6746,1.6795,1.6803,1.6808,1.6788,1.6813,1.6827,1.6817,1.6916,1.6889,1.6901,1.6935,1.7033,1.7038,1.7043,1.7071,1.708,1.7088,0,0,0,0,0,0,1.6653,1.6683,1.6677,1.6738,1.6764,1.6792,1.6824,1.6818,1.685,1.6846,1.6851,1.6859,1.6916,1.6931,1.69,1.7,1.6971,1.6979,1.6989,1.6998,1.7005,1.7001,1.6876,0,0,0,0,0,1.6665,1.6702,1.6726,1.6778,1.6791,1.6805,1.6827,1.6828,1.6856,1.6867,1.6885,1.6913,1.695,1.6975,1.701,1.7076,1.7084,1.7105,1.7113,1.7118,1.7125,1.7163,1.7174,1.7061,1.7061,1.7061,0,0,1.6691,1.6712,1.6735,1.6783,1.6803,1.6842,1.6815,1.6856,1.6886,1.6873,1.6927,1.6942,1.6973,1.7035,1.7063,1.7049,1.7158,1.7125,1.7129,1.7133,1.7169,1.718,1.7189,1.7064,1.7064,1.7063,0,0,1.6758,1.6777,1.6822,1.6844,1.6875,1.6884,1.6895,1.6925,1.6934,1.6988,1.698,1.7015,1.7079,1.7102,1.7122,1.72,1.7192,1.7211,1.725,1.7286,1.7295,1.7303,1.7333,1.7343,1.7217,1.7218,1.7218,0,1.6786,1.6843,1.6847,1.689,1.6912,1.6902,1.695,1.697,1.7012,1.7028,1.7011,1.7093,1.7113,1.718,1.7199,1.7215,1.7229,1.7208,1.7294,1.7302,1.7309,1.7337,1.7348,1.722,1.722,1.7219,1.7219,0,1.6877,1.6918,1.6951,1.6991,1.7017,1.7062,1.7073,1.7099,1.7099,1.711,1.7167,1.7191,1.7232,1.7248,1.7247,1.7316,1.7307,1.7292,1.7263,1.7322,1.7349,1.7359,1.7223,1.7222,1.7222,1.7221,0,0,1.6961,1.7003,1.7016,1.7035,1.7069,1.7101,1.7146,1.7186,1.7209,1.7238,1.7277,1.7332,1.7319,1.7342,1.7344,1.7376,1.7439,1.7358,1.7359,1.7374,1.7518,1.753,1.7543,1.7433,1.7435,1.7437,1.7516,0,1.7032,1.7111,1.7116,1.7188,1.7226,1.7218,1.7258,1.7284,1.7296,1.7331,1.7344,1.7384,1.7363,1.7377,1.7408,1.7424,1.7468,1.7419,1.7472,1.7473,1.7466,1.7556,1.7569,1.7642,1.7527,1.7528,1.753,0,1.7125,1.7158,1.7234,1.7265,1.7281,1.7316,1.7354,1.7387,1.7417,1.7424,1.745,1.7449,1.7496,1.7465,1.7532,1.7498,1.752,1.7532,1.7535,1.7541,1.7506,1.7567,1.7666,1.7678,1.7546,1.7544,1.7543,0,1.7181,1.7243,1.7298,1.7314,1.735,1.7376,1.7393,1.7421,1.7445,1.7478,1.7495,1.7533,1.7555,1.7585,1.7595,1.7571,1.7662,1.7631,1.7671,1.767,1.7691,1.769,1.7797,1.7703,1.7702,1.7702,1.7702,0,1.7261,1.7308,1.7323,1.7357,1.741,1.7416,1.7469,1.7484,1.7509,1.7546,1.7541,1.7576,1.7586,1.7623,1.7631,1.7686,1.7695,1.7703,1.7705,1.7705,1.7704,1.772,1.7716,1.7705,1.7704,1.7704,1.7703,0,1.7332,1.7344,1.7403,1.7433,1.7442,1.748,1.7506,1.7539,1.755,1.7598,1.7609,1.7628,1.7672,1.7684,1.7736,1.7741,1.7807,1.7803,1.7797,1.7798,1.7837,1.7834,1.796,1.7977,1.787,1.7871,1.7872,0,1.7383,1.7419,1.7454,1.7478,1.7496,1.7535,1.756,1.7568,1.7594,1.7632,1.7661,1.7704,1.7739,1.781,1.7829,1.7869,1.7867,1.7909,1.7873,1.7873,1.787,1.7869,1.7874,1.7916,1.7917,1.7918,1.7918,0,1.7473,1.7477,1.7513,1.7552,1.7582,1.7613,1.7643,1.7663,1.7675,1.7705,1.775,1.7778,1.7832,1.7875,1.7917,1.7935,1.793,1.7929,1.7941,1.7942,1.7938,1.7942,1.7817,1.7927,1.7926,1.7925,1.7925,1.7924,1.7537,1.757,1.7599,1.764,1.7663,1.7692,1.7725,1.7741,1.7778,1.7823,1.7825,1.7874,1.7905,1.796,1.798,1.802,1.8007,1.8024,1.8028,1.8033,1.8037,1.793,1.8027,1.8027,1.8026,1.8026,1.8026,0,1.7628,1.7647,1.7684,1.7727,1.7759,1.7751,1.7784,1.7812,1.7855,1.7884,1.7919,1.7971,1.8014,1.8037,1.8079,1.8107,1.8106,1.8118,1.8117,1.8122,1.8044,1.8031,1.8118,1.8118,1.8118,1.8118,1.8118,1.8118,1.7679,1.7735,1.7743,1.7811,1.783,1.7878,1.7897,1.7924,1.7947,1.8006,1.8042,1.8056,1.8083,1.8128,1.8168,1.8173,1.819,1.8204,1.8209,1.8136,1.8127,1.8118,1.8105,1.8207,1.8207,1.8283,1.8284,1.8284]},{"header":{"parameterUnit":"m.s-1","parameterCategory":1,"la1":30.2991,"la2":30.254,"lo1":-89.0895,"lo2":-89.0444,"dy":0.0017,"dx":0.0017,"nx":28,"ny":28,"refTime":"2024-03-08T03:00:00:Z","depth":0,"parameterNumber":3,"parameterNumberName":"V-component_of_WINDS"},"data":[0,0,0,0,0,0,0,0,0,0,0,0,0,0,0,0,0,0,0,0,0,0,0,0,0,0,0,0,0,0,0,0,0,0,0,0,0,0,0,0,0,0,0,0,0,0,0,0,0,0,0,0,0,0,0,0,0,0,-4.4239,-4.424,0,-4.4354,-4.4355,-4.4357,-4.4426,-4.4426,-4.4426,-4.4427,-4.454,-4.4543,-4.4546,0,0,0,0,0,0,0,0,0,0,0,0,0,-4.4077,-4.4079,-4.4239,-4.424,-4.4242,-4.4354,-4.4355,-4.4357,-4.4426,-4.4426,-4.4426,-4.4427,-4.454,-4.4543,-4.4546,0,0,0,0,0,0,0,0,0,0,0,0,0,-4.4165,-4.408,-4.4239,-4.429,-4.4296,-4.4354,-4.4356,-4.4357,-4.4426,-4.4426,-4.4427,-4.4427,-4.4539,-4.4542,-4.4546,-4.4562,0,0,-4.4559,-4.4561,0,0,0,0,0,0,0,0,-4.416,-4.4171,-4.4281,-4.4286,-4.4293,-4.4376,-4.434,-4.4426,-4.4425,-4.4376,-4.4427,-4.4427,-4.4485,-4.4494,-4.4514,-4.4567,-4.4572,-4.4559,-4.4562,-4.4564,-4.4565,0,0,0,0,0,0,0,-4.4153,-4.4166,-4.4284,-4.4282,-4.429,-4.4306,-4.4319,-4.4357,-4.4426,-4.438,-4.4386,-4.4399,-4.4488,-4.451,-4.4517,-4.4574,-4.4559,-4.4563,-4.4565,-4.4567,-4.4646,-4.4646,0,0,0,0,0,0,-4.414,-4.4161,-4.4281,-4.4288,-4.4226,-4.4309,-4.4323,-4.4349,-4.4426,-4.4438,-4.4398,-4.4401,-4.4503,-4.4512,-4.4521,-4.4545,-4.4564,-4.4567,-4.457,-4.4646,-4.4646,-4.4645,0,0,0,0,0,0,-4.4136,-4.415,-4.4276,-4.4226,-4.4243,-4.4311,-4.4339,-4.4351,-4.4372,-4.4439,-4.4452,-4.4407,-4.4503,-4.4516,-4.4552,-4.455,-4.4569,-4.4573,-4.4647,-4.4646,-4.4646,-4.4592,0,0,0,0,0,0,-4.4131,-4.4148,-4.4155,-4.4225,-4.4246,-4.4305,-4.4339,-4.4353,-4.438,-4.4385,-4.4451,-4.4463,-4.4505,-4.4545,-4.4556,-4.4556,-4.4576,-4.4647,-4.4646,-4.4646,-4.4594,-4.4589,-4.4585,0,0,0,0,0,-4.4125,-4.4134,-4.4155,-4.4169,-4.4256,-4.4305,-4.4316,-4.4366,-4.4379,-4.4387,-4.443,-4.4461,-4.4549,-4.4548,-4.4561,-4.4562,-4.4647,-4.4647,-4.4646,-4.4596,-4.459,-4.4585,0,0,0,0,0,0,-4.4059,-4.4144,-4.4168,-4.42,-4.4245,-4.4316,-4.4327,-4.4358,-4.4399,-4.4402,-4.446,-4.4474,-4.4505,-4.4537,-4.4535,-4.4581,-4.4601,-4.4603,-4.4559,-4.4554,-4.455,-4.4541,-4.4579,0,0,0,0,0,-4.4049,-4.4083,-4.4155,-4.4176,-4.4198,-4.4258,-4.4281,-4.4316,-4.4364,-4.4383,-4.4429,-4.4473,-4.4511,-4.4535,-4.4573,-4.4599,-4.4615,-4.4606,-4.4602,-4.4598,-4.4599,-4.4615,-4.4613,-4.4643,-4.4643,-4.4643,0,0,-4.4027,-4.4078,-4.4095,-4.4164,-4.4203,-4.4236,-4.4274,-4.4307,-4.4332,-4.4387,-4.4425,-4.446,-4.4514,-4.4545,-4.4561,-4.4573,-4.4594,-4.4597,-4.4594,-4.4596,-4.4614,-4.4611,-4.4609,-4.4642,-4.4642,-4.4643,0,0,-4.4005,-4.4046,-4.4069,-4.4108,-4.4167,-4.4208,-4.4213,-4.428,-4.4306,-4.4345,-4.4388,-4.4418,-4.4482,-4.4519,-4.4546,-4.4539,-4.4569,-4.455,-4.4527,-4.4543,-4.4541,-4.4539,-4.4537,-4.4535,-4.455,-4.455,-4.455,0,-4.397,-4.4023,-4.4077,-4.4108,-4.4137,-4.4192,-4.4215,-4.4249,-4.4317,-4.4336,-4.4348,-4.4431,-4.447,-4.4512,-4.451,-4.453,-4.4538,-4.4542,-4.4537,-4.4536,-4.4535,-4.4533,-4.4532,-4.4547,-4.4548,-4.4548,-4.4548,0,-4.3977,-4.4013,-4.4024,-4.409,-4.4121,-4.4148,-4.4206,-4.423,-4.4262,-4.4301,-4.434,-4.439,-4.444,-4.4453,-4.4484,-4.4499,-4.4504,-4.4526,-4.4547,-4.4528,-4.4528,-4.4528,-4.4544,-4.4545,-4.4545,-4.4546,0,0,-4.3915,-4.4012,-4.4016,-4.4047,-4.4116,-4.4145,-4.4174,-4.4225,-4.4245,-4.429,-4.4316,-4.437,-4.4391,-4.4422,-4.4457,-4.4471,-4.4463,-4.4492,-4.4494,-4.4485,-4.4483,-4.4466,-4.4464,-4.4484,-4.4484,-4.4484,-4.4479,0,-4.3902,-4.396,-4.4011,-4.4049,-4.4083,-4.4136,-4.4162,-4.4207,-4.4244,-4.4278,-4.4319,-4.4357,-4.4382,-4.4401,-4.4417,-4.4461,-4.4464,-4.4462,-4.4508,-4.4509,-4.4493,-4.4464,-4.4446,-4.4438,-4.4479,-4.4479,-4.4479,0,-4.3895,-4.394,-4.3982,-4.405,-4.4066,-4.4089,-4.414,-4.4172,-4.4224,-4.4251,-4.4286,-4.4324,-4.4357,-4.4376,-4.4422,-4.442,-4.4442,-4.4467,-4.4467,-4.4473,-4.4492,-4.4469,-4.4437,-4.4435,-4.4479,-4.4479,-4.4479,0,-4.3846,-4.3917,-4.3952,-4.3977,-4.4056,-4.4071,-4.4105,-4.4158,-4.4186,-4.423,-4.4249,-4.4295,-4.4321,-4.4356,-4.4406,-4.4414,-4.4447,-4.447,-4.4469,-4.4468,-4.4473,-4.4472,-4.4444,-4.4488,-4.4488,-4.4488,-4.4488,0,-4.3826,-4.385,-4.3931,-4.3952,-4.398,-4.4039,-4.4065,-4.4103,-4.415,-4.4179,-4.4227,-4.4253,-4.4317,-4.4351,-4.439,-4.4423,-4.4434,-4.4456,-4.4466,-4.4451,-4.4448,-4.4466,-4.4467,-4.4488,-4.4488,-4.4488,-4.4488,0,-4.3775,-4.3831,-4.3872,-4.3945,-4.3964,-4.3982,-4.4044,-4.4066,-4.4107,-4.4144,-4.4156,-4.422,-4.4262,-4.4315,-4.4374,-4.44,-4.4429,-4.4444,-4.4411,-4.4417,-4.4414,-4.4413,-4.4396,-4.4396,-4.4439,-4.4439,-4.4439,0,-4.3759,-4.3779,-4.3855,-4.3879,-4.3912,-4.3949,-4.3978,-4.4036,-4.4064,-4.4127,-4.4141,-4.4188,-4.4228,-4.4293,-4.4344,-4.4389,-4.4406,-4.4397,-4.4413,-4.4398,-4.4406,-4.4404,-4.4406,-4.4392,-4.4391,-4.4391,-4.439,0,-4.3724,-4.3751,-4.3792,-4.3843,-4.3876,-4.3918,-4.3963,-4.3979,-4.4046,-4.4075,-4.412,-4.4151,-4.4213,-4.4258,-4.431,-4.4344,-4.4378,-4.4385,-4.4388,-4.4372,-4.4353,-4.4363,-4.44,-4.4385,-4.4385,-4.4386,-4.4386,-4.4386,-4.369,-4.3711,-4.3768,-4.3812,-4.3852,-4.3892,-4.3918,-4.3963,-4.4002,-4.4057,-4.4089,-4.4133,-4.4186,-4.426,-4.4292,-4.4327,-4.4339,-4.4343,-4.4344,-4.4343,-4.4339,-4.4348,-4.4337,-4.4337,-4.4337,-4.4337,-4.4337,0,-4.3658,-4.3698,-4.3738,-4.3799,-4.3834,-4.3865,-4.3916,-4.3942,-4.3981,-4.4028,-4.4068,-4.4119,-4.4164,-4.4219,-4.4268,-4.4285,-4.4301,-4.4295,-4.4294,-4.4301,-4.4325,-4.4318,-4.4281,-4.4281,-4.4281,-4.4281,-4.4281,-4.4281,-4.3645,-4.3682,-4.3716,-4.3772,-4.3812,-4.3857,-4.3883,-4.3921,-4.3959,-4.4015,-4.4053,-4.409,-4.414,-4.4193,-4.4235,-4.425,-4.4266,-4.4255,-4.4274,-4.4295,-4.43,-4.4304,-4.4298,-4.4258,-4.4257,-4.4248,-4.4248,-4.4248]}]]